Miscellaneous Local Product
Issued by NWS North Platte, NE

Home | Current Version | Previous Version | Text Only | Print | Product List | Glossary On
Versions: 1 2 3 4 5 6 7 8 9 10 11 12 13 14 15 16 17 18 19 20 21 22 23 24 25 26 27 28 29 30 31 32 33 34 35 36 37 38 39 40 41 42 43 44 45 46 47 48 49 50
000
AXUS43 KLBF 201810
MISLBF


WESTERN AND NORTH CENTRAL NEBRASKA HOURLY WEATHER ROUNDUP
NATIONAL WEATHER SERVICE NORTH PLATTE NE
100 PM CDT WED AUG 20 2014

***STATIONS NOT REPORTING VARIABLES SUCH AS SKY/WEATHER OR
PRESSURE ARE PROVIDED BY THE NEBRASKA DEPARTMENT OF
ROADS...RAWS...AND APRS NETWORKS...AND ARE NOT UNDER
NATIONAL WEATHER SERVICE QUALITY CONTROL***

...OBSERVATIONS IN AND NEAR THE EASTERN PANHANDLE OF NEBRASKA...

CITY           SKY/WX    TMP DP  RH WIND       PRES   REMARKS
PINE RIDGE     MOSUNNY   84  57  39 VRB3      29.78F
CHADRON        SUNNY     89  53  29 MISG      29.76F
ALLIANCE       MOSUNNY   87  52  29 W12       29.83F
SIDNEY         SUNNY     88  52  29 VRB3      29.88F
WHITECLAY        N/A     86  55  34 CALM        N/A
RUSHVILLE        N/A     92  52  25 S10         N/A
GORDON           N/A     96  57  26 W7          N/A  HX  95
CRESCENT LAKE    N/A     85  56  37 NW6G13      N/A
LISCO            N/A     87  49  26 SW9         N/A
BIG SPRINGS      N/A     77  63  62 CALM        N/A
$$

...OBSERVATIONS IN NORTH CENTRAL NEBRASKA...

CITY           SKY/WX    TMP DP  RH WIND       PRES   REMARKS
VALENTINE      CLOUDY    82  60  47 S6        29.76R
THEDFORD       CLOUDY    81  65  59 N5        29.79S
AINSWORTH      CLOUDY    79  66  65 S7        29.77R
O`NEILL        CLOUDY    76  71  84 SE9       29.77F
ORD            CLOUDY    80  68  66 SE8       29.76F
BROKEN BOW     CLOUDY    81  69  67 VRB7      29.78F
BROWNLEE         N/A     83  62  48 CALM        N/A
SPRINGVIEW       N/A     80  71  74 E6          N/A
ROSE             N/A     83  74  73 E10         N/A  HX  90
NEWPORT          N/A     81  71  71 SE10        N/A
SARGENT          N/A     77  71  83 CALM        N/A
COMSTOCK         N/A     87  75  66 S10         N/A  HX  96
CHAMBERS         N/A     81  69  67 S3          N/A
EWING            N/A     77  74  91 MISG        N/A
$$

...OBSERVATIONS IN SOUTHWEST NEBRASKA AND FAR NORTHEAST COLORADO...

CITY           SKY/WX    TMP DP  RH WIND       PRES   REMARKS
WRAY             N/A     87  53  30 N14       29.85S
IMPERIAL       PTSUNNY   80  64  58 N8        29.82S
OGALLALA       PTSUNNY   82  60  46 N8        29.81F
NORTH PLATTE   CLOUDY    77  67  71 CALM      29.79S
MCCOOK         MOSUNNY   92  63  38 SE7       29.77F HX  93
LEXINGTON      PTSUNNY   85  71  62 S5        29.78S HX  91
PAXTON           N/A     76  65  70 CALM        N/A
SUTHERLAND       N/A     86  69  56 NW3         N/A
BRADY            N/A     83  68  59 CALM        N/A
GOTHENBURG       N/A     83  63  50 S5          N/A
CALLAWAY         N/A     80  71  75 S3          N/A
$$

...SOME WEATHER OBSERVATIONS FROM AROUND THE REGION...

CITY           SKY/WX    TMP DP  RH WIND       PRES   REMARKS
DENVER         MOSUNNY   81  51  35 VRB5      29.96S
LARAMIE        PTSUNNY   68  47  46 W16G24    30.09R
CHEYENNE       MOSUNNY   76  47  35 W20G36    30.01S
SCOTTSBLUFF    SUNNY     88  56  33 NW12      29.84F
RAPID CITY     MOSUNNY   83  59  44 SE7       29.75S
PIERRE         CLOUDY    79  68  69 SE9       29.69F
WINNER         LGT RAIN  81  69  67 SE13      29.72F
SIOUX FALLS    PTSUNNY   79  68  69 SE13      29.79F
OMAHA          CLOUDY    82  68  62 SE18      29.84F
GRAND ISLAND   PTSUNNY   85  71  63 SE15      29.78F HX  90
KANSAS CITY    MOSUNNY   90  73  57 S10       29.90R HX  98
WICHITA        MOSUNNY   92  67  43 S20G29    29.86F HX  95
HAYS           SUNNY     93  66  40 S21G28    29.79F HX  96
LIBERAL        SUNNY     93  63  36 SW22      29.86F HX  94
GOODLAND       SUNNY     91  53  27 W9        29.84S
$$



USA.gov is the U.S. government's official web portal to all federal, state and local government web resources and services.